Location: Peebles
(55.6412°N, 3.1714°W)
Time: 19:54:23
(UTC+01:00)

Envisat - Pass Details

Date: 23 February 2024
Orbit: 762 x 764 km, 98.3° (Epoch: 21 April)

Event Time Altitude Azimuth Distance (km) Brightness Sun altitude
Rises 04:41:00 0° 13° (NNE) 3,247 6.6 -22.9°
Reaches altitude 10° 04:43:22 10° 8° (N) 2,316 5.8 -22.6°
Maximum altitude 04:48:16 48° 295° (WNW) 995 3.2 -22.0°
Enters shadow 04:48:33 48° 284° (WNW) 1,002 3.2 -21.9°
